This is the latest recevied weather packets stored in our database for station/object W6JCZ-13. If no packets are shown the sender has not sent any weather packets the latest 10 day(s).
| Time | Temp. | Humidity | Pressure | Rain* | Wind** | Luminosity | Snow |
|---|---|---|---|---|---|---|---|
| 1777675217 | 29.44° C | 44% | 1009.3 hPa | 0 mm | - | - | - |
| 1777674617 | 28.89° C | 44% | 1009.6 hPa | 0 mm | - | - | - |
| 1777674017 | 30° C | 46% | 1009.8 hPa | 0 mm | - | - | - |
| 1777673417 | 28.89° C | 46% | 1010 hPa | 0 mm | - | - | - |
| 1777672817 | 28.89° C | 45% | 1010.1 hPa | 0 mm | - | - | - |
| 1777672217 | 28.89° C | 45% | 1010.2 hPa | 0 mm | - | - | - |
| 1777671617 | 29.44° C | 46% | 1010.4 hPa | 0 mm | - | - | - |
| 1777671017 | 28.89° C | 47% | 1010.4 hPa | 0 mm | - | - | - |
| 1777670417 | 28.89° C | 48% | 1010.4 hPa | 0 mm | - | - | - |
| 1777669816 | 28.89° C | 47% | 1010.4 hPa | 0 mm | - | - | - |
| 1777669217 | 28.89° C | 47% | 1010.5 hPa | 0 mm | - | - | - |
| 1777668617 | 28.33° C | 50% | 1010.7 hPa | 0 mm | - | - | - |
| 1777668016 | 27.78° C | 49% | 1010.8 hPa | 0 mm | - | - | - |
| 1777667416 | 27.78° C | 48% | 1011.1 hPa | 0 mm | - | - | - |
| 1777666817 | 27.22° C | 52% | 1011.1 hPa | 0 mm | - | - | - |
| 1777666216 | 27.22° C | 49% | 1011.3 hPa | 0 mm | - | - | - |
| 1777665617 | 26.67° C | 51% | 1011.4 hPa | 0 mm | - | - | - |
| 1777665017 | 26.67° C | 55% | 1011.5 hPa | 0 mm | - | - | - |
| 1777664417 | 26.67° C | 57% | 1011.5 hPa | 0 mm | - | - | - |
| 1777663817 | 25.56° C | 57% | 1011.7 hPa | 0 mm | - | - | - |
| 1777663217 | 25.56° C | 57% | 1011.8 hPa | 0 mm | - | - | - |
| 1777662617 | 25° C | 55% | 1011.9 hPa | 0 mm | - | - | - |
| 1777662017 | 25° C | 55% | 1012 hPa | 0 mm | - | - | - |
| 1777661417 | 25° C | 57% | 1012.2 hPa | 0 mm | - | - | - |
| 1777660817 | 23.89° C | 56% | 1012.3 hPa | 0 mm | - | - | - |
* Rain latest hour (hover to see other rain measurements)
** Current wind speed in m/s (hover to see current wind gust speed)